Time,TemperatureF,DewpointF,PressureIn,WindDirection,WindDirectionDegrees,WindSpeedMPH,WindSpeedGustMPH,Humidity,HourlyPrecipIn,Conditions,Clouds,dailyrainin,SolarRadiationWatts/m^2,SoftwareType,DateUTC
2013-08-27 00:01:00,66.2,63.2,30.15,WNW,282,0.0,0.0,90,0.00,,,0.00,0,WeatherCatV1.20B785,2013-08-27 04:01:00,
2013-08-27 00:06:00,66.0,62.7,30.15,WNW,282,0.0,0.0,89,0.00,,,0.00,0,WeatherCatV1.20B785,2013-08-27 04:06:00,
2013-08-27 00:11:00,66.1,63.1,30.15,WNW,282,0.0,0.0,90,0.00,,,0.00,0,WeatherCatV1.20B785,2013-08-27 04:11:00,
2013-08-27 00:16:00,66.0,63.0,30.15,WNW,282,0.0,0.0,90,0.00,,,0.00,0,WeatherCatV1.20B785,2013-08-27 04:16:00,
2013-08-27 00:21:00,65.9,62.9,30.15,WNW,282,0.0,0.0,90,0.00,,,0.00,0,WeatherCatV1.20B785,2013-08-27 04:21:00,
2013-08-27 00:26:00,65.8,62.8,30.15,WNW,282,0.0,0.0,90,0.00,,,0.00,0,WeatherCatV1.20B785,2013-08-27 04:26:00,
2013-08-27 00:31:00,65.9,62.6,30.15,WNW,282,0.0,0.0,89,0.00,,,0.00,0,WeatherCatV1.20B785,2013-08-27 04:31:00,
2013-08-27 00:36:00,65.8,62.8,30.15,WNW,282,0.0,0.0,90,0.00,,,0.00,0,WeatherCatV1.20B785,2013-08-27 04:36:00,
2013-08-27 00:41:00,65.9,62.6,30.14,WNW,282,0.0,0.0,89,0.00,,,0.00,0,WeatherCatV1.20B785,2013-08-27 04:41:00,
2013-08-27 00:46:00,65.8,62.8,30.14,WNW,282,0.0,0.0,90,0.00,,,0.00,0,WeatherCatV1.20B785,2013-08-27 04:46:00,
2013-08-27 00:51:00,65.7,63.0,30.14,WNW,282,0.0,0.0,91,0.00,,,0.00,0,WeatherCatV1.20B785,2013-08-27 04:51:00,
2013-08-27 00:56:00,65.5,62.8,30.14,WNW,282,0.0,0.0,91,0.00,,,0.00,0,WeatherCatV1.20B785,2013-08-27 04:56:00,
2013-08-27 01:01:00,65.3,62.6,30.14,WNW,282,0.0,0.0,91,0.00,,,0.00,0,WeatherCatV1.20B785,2013-08-27 05:01:00,
2013-08-27 01:06:00,65.2,62.5,30.14,WNW,282,0.0,0.0,91,0.00,,,0.00,0,WeatherCatV1.20B785,2013-08-27 05:06:00,
2013-08-27 01:11:00,65.0,62.6,30.13,WNW,282,0.0,0.0,92,0.00,,,0.00,0,WeatherCatV1.20B785,2013-08-27 05:11:00,
2013-08-27 01:16:00,65.0,62.3,30.13,WNW,282,0.0,0.0,91,0.00,,,0.00,0,WeatherCatV1.20B785,2013-08-27 05:16:00,
2013-08-27 01:21:00,65.0,62.3,30.13,WNW,282,0.0,0.0,91,0.00,,,0.00,0,WeatherCatV1.20B785,2013-08-27 05:21:00,
2013-08-27 01:26:00,65.2,62.2,30.13,WNW,282,0.0,0.0,90,0.00,,,0.00,0,WeatherCatV1.20B785,2013-08-27 05:26:00,
2013-08-27 01:31:00,65.2,62.2,30.12,WNW,282,0.0,0.0,90,0.00,,,0.00,0,WeatherCatV1.20B785,2013-08-27 05:31:00,
2013-08-27 01:36:00,65.3,62.0,30.13,WNW,282,0.0,0.0,89,0.00,,,0.00,0,WeatherCatV1.20B785,2013-08-27 05:36:00,
2013-08-27 01:41:00,65.5,62.2,30.12,WNW,282,0.0,0.0,89,0.00,,,0.00,0,WeatherCatV1.20B785,2013-08-27 05:41:00,
2013-08-27 01:46:00,65.4,61.8,30.12,WNW,282,0.0,0.0,88,0.00,,,0.00,0,WeatherCatV1.20B785,2013-08-27 05:46:00,
2013-08-27 01:51:00,65.4,61.8,30.12,WNW,282,0.0,0.0,88,0.00,,,0.00,0,WeatherCatV1.20B785,2013-08-27 05:51:00,
2013-08-27 01:56:00,65.3,62.0,30.12,WNW,282,0.0,0.0,89,0.00,,,0.00,0,WeatherCatV1.20B785,2013-08-27 05:56:00,
2013-08-27 02:01:00,65.3,62.0,30.11,WNW,282,0.0,0.0,89,0.00,,,0.00,0,WeatherCatV1.20B785,2013-08-27 06:01:00,
2013-08-27 02:06:00,65.4,62.1,30.11,WNW,282,0.0,0.0,89,0.00,,,0.00,0,WeatherCatV1.20B785,2013-08-27 06:06:00,
2013-08-27 02:11:00,65.2,62.2,30.11,WNW,282,0.0,0.0,90,0.00,,,0.00,0,WeatherCatV1.20B785,2013-08-27 06:11:00,
2013-08-27 02:16:00,65.1,61.8,30.11,WNW,282,0.0,0.0,89,0.00,,,0.00,0,WeatherCatV1.20B785,2013-08-27 06:16:00,
2013-08-27 02:21:00,65.2,61.5,30.11,WNW,282,0.0,0.0,88,0.00,,,0.00,0,WeatherCatV1.20B785,2013-08-27 06:21:00,
2013-08-27 02:26:00,65.3,61.7,30.11,WNW,282,0.0,0.0,88,0.00,,,0.00,0,WeatherCatV1.20B785,2013-08-27 06:26:00,
2013-08-27 02:31:00,65.4,62.1,30.11,WNW,282,0.0,0.0,89,0.00,,,0.00,0,WeatherCatV1.20B785,2013-08-27 06:31:00,
2013-08-27 02:36:00,65.2,61.9,30.11,WNW,282,0.0,0.0,89,0.00,,,0.00,0,WeatherCatV1.20B785,2013-08-27 06:36:00,
2013-08-27 02:41:00,65.2,61.9,30.10,WNW,282,0.0,0.0,89,0.00,,,0.00,0,WeatherCatV1.20B785,2013-08-27 06:41:00,
2013-08-27 02:46:00,65.1,62.1,30.10,WNW,282,0.0,0.0,90,0.00,,,0.00,0,WeatherCatV1.20B785,2013-08-27 06:46:00,
2013-08-27 02:51:00,65.2,61.9,30.10,WNW,282,0.0,0.0,89,0.00,,,0.00,0,WeatherCatV1.20B785,2013-08-27 06:51:00,
2013-08-27 02:56:00,65.1,61.8,30.10,WNW,282,0.0,0.0,89,0.00,,,0.00,0,WeatherCatV1.20B785,2013-08-27 06:56:00,
2013-08-27 03:01:00,65.2,61.9,30.10,WNW,282,0.0,0.0,89,0.00,,,0.00,0,WeatherCatV1.20B785,2013-08-27 07:01:00,
2013-08-27 03:06:00,65.4,62.1,30.10,SSE,148,0.0,0.0,89,0.00,,,0.00,0,WeatherCatV1.20B785,2013-08-27 07:06:00,
2013-08-27 03:11:00,65.4,62.1,30.10,SSE,148,0.0,0.0,89,0.00,,,0.00,0,WeatherCatV1.20B785,2013-08-27 07:11:00,
2013-08-27 03:16:00,65.1,62.1,30.10,SSE,148,0.0,0.0,90,0.00,,,0.00,0,WeatherCatV1.20B785,2013-08-27 07:16:00,
2013-08-27 03:21:00,64.9,62.2,30.10,SSE,148,0.0,0.0,91,0.00,,,0.00,0,WeatherCatV1.20B785,2013-08-27 07:21:00,
2013-08-27 03:26:00,64.9,62.2,30.10,SSE,148,0.0,0.0,91,0.00,,,0.00,0,WeatherCatV1.20B785,2013-08-27 07:26:00,
2013-08-27 03:31:00,65.0,62.3,30.10,SSE,148,0.0,0.0,91,0.00,,,0.00,0,WeatherCatV1.20B785,2013-08-27 07:31:00,
2013-08-27 03:36:00,65.2,62.5,30.10,SSE,148,0.0,0.0,91,0.00,,,0.00,0,WeatherCatV1.20B785,2013-08-27 07:36:00,
2013-08-27 03:41:00,65.2,62.5,30.10,SSE,148,0.0,0.0,91,0.00,,,0.00,0,WeatherCatV1.20B785,2013-08-27 07:41:00,
2013-08-27 03:46:00,65.3,62.6,30.10,SSE,147,0.0,0.0,91,0.00,,,0.00,0,WeatherCatV1.20B785,2013-08-27 07:46:00,
2013-08-27 03:51:00,65.2,62.5,30.09,ESE,103,0.0,2.0,91,0.00,,,0.00,0,WeatherCatV1.20B785,2013-08-27 07:51:00,
2013-08-27 03:56:00,65.1,62.4,30.09,ESE,103,0.0,0.0,91,0.00,,,0.00,0,WeatherCatV1.20B785,2013-08-27 07:56:00,
2013-08-27 04:01:00,65.2,62.5,30.09,ESE,111,0.0,1.0,91,0.00,,,0.00,0,WeatherCatV1.20B785,2013-08-27 08:01:00,
2013-08-27 04:06:00,65.3,62.6,30.09,SE,136,0.0,1.0,91,0.00,,,0.00,0,WeatherCatV1.20B785,2013-08-27 08:06:00,
2013-08-27 04:11:00,65.7,62.7,30.09,SSW,192,2.0,2.0,90,0.00,,,0.00,0,WeatherCatV1.20B785,2013-08-27 08:11:00,
2013-08-27 04:16:00,66.2,63.2,30.09,WSW,237,0.0,1.0,90,0.00,,,0.00,0,WeatherCatV1.20B785,2013-08-27 08:16:00,
2013-08-27 04:21:00,66.2,63.2,30.09,SW,233,0.0,1.0,90,0.00,,,0.00,0,WeatherCatV1.20B785,2013-08-27 08:21:00,
2013-08-27 04:26:00,66.3,63.3,30.09,South,180,1.0,1.0,90,0.00,,,0.00,0,WeatherCatV1.20B785,2013-08-27 08:26:00,
2013-08-27 04:31:00,66.2,63.2,30.09,South,172,0.0,0.0,90,0.00,,,0.00,0,WeatherCatV1.20B785,2013-08-27 08:31:00,
2013-08-27 04:36:00,66.2,63.2,30.09,West,261,0.0,2.0,90,0.00,,,0.00,0,WeatherCatV1.20B785,2013-08-27 08:36:00,
2013-08-27 04:41:00,66.1,63.1,30.09,West,265,0.0,3.0,90,0.00,,,0.00,0,WeatherCatV1.20B785,2013-08-27 08:41:00,
2013-08-27 04:46:00,66.1,63.1,30.09,SW,220,0.0,0.0,90,0.00,,,0.00,0,WeatherCatV1.20B785,2013-08-27 08:46:00,
2013-08-27 04:51:00,66.0,63.0,30.09,WSW,250,1.0,2.0,90,0.00,,,0.00,0,WeatherCatV1.20B785,2013-08-27 08:51:00,
2013-08-27 04:56:00,65.9,62.9,30.09,West,264,0.0,1.0,90,0.00,,,0.00,0,WeatherCatV1.20B785,2013-08-27 08:56:00,
2013-08-27 05:01:00,65.9,62.9,30.09,SW,226,0.0,3.0,90,0.00,,,0.00,0,WeatherCatV1.20B785,2013-08-27 09:01:00,
2013-08-27 05:06:00,65.8,62.8,30.09,South,188,0.0,0.0,90,0.00,,,0.00,0,WeatherCatV1.20B785,2013-08-27 09:06:00,
2013-08-27 05:11:00,65.7,63.0,30.09,SW,216,0.0,4.0,91,0.00,,,0.00,0,WeatherCatV1.20B785,2013-08-27 09:11:00,
2013-08-27 05:16:00,65.6,62.9,30.09,WSW,257,0.0,3.0,91,0.00,,,0.00,0,WeatherCatV1.20B785,2013-08-27 09:16:00,
2013-08-27 05:21:00,65.5,62.8,30.09,WSW,257,0.0,0.0,91,0.00,,,0.00,0,WeatherCatV1.20B785,2013-08-27 09:21:00,
2013-08-27 05:26:00,65.4,63.0,30.08,WSW,257,0.0,1.0,92,0.00,,,0.00,0,WeatherCatV1.20B785,2013-08-27 09:26:00,
2013-08-27 05:31:00,65.3,62.9,30.09,SW,224,1.0,1.0,92,0.00,,,0.00,0,WeatherCatV1.20B785,2013-08-27 09:31:00,
2013-08-27 05:36:00,65.3,62.9,30.09,WSW,240,0.0,0.0,92,0.00,,,0.00,0,WeatherCatV1.20B785,2013-08-27 09:36:00,
2013-08-27 05:41:00,65.3,62.9,30.08,South,191,0.0,1.0,92,0.00,,,0.00,0,WeatherCatV1.20B785,2013-08-27 09:41:00,
2013-08-27 05:46:00,65.2,63.1,30.08,SSW,210,0.0,0.0,93,0.00,,,0.00,0,WeatherCatV1.20B785,2013-08-27 09:46:00,
2013-08-27 05:51:00,65.0,62.9,30.08,SSW,210,0.0,0.0,93,0.00,,,0.00,0,WeatherCatV1.20B785,2013-08-27 09:51:00,
2013-08-27 05:56:00,64.9,62.8,30.08,SSW,210,0.0,0.0,93,0.00,,,0.00,0,WeatherCatV1.20B785,2013-08-27 09:56:00,
2013-08-27 06:01:00,64.9,62.8,30.08,SSW,210,0.0,0.0,93,0.00,,,0.00,0,WeatherCatV1.20B785,2013-08-27 10:01:00,
2013-08-27 06:06:00,64.8,63.0,30.08,SSW,212,0.0,0.0,94,0.00,,,0.00,0,WeatherCatV1.20B785,2013-08-27 10:06:00,
2013-08-27 06:11:00,64.9,62.8,30.08,WSW,240,0.0,1.0,93,0.00,,,0.00,0,WeatherCatV1.20B785,2013-08-27 10:11:00,
2013-08-27 06:16:00,64.8,63.0,30.08,SW,214,0.0,3.0,94,0.00,,,0.00,0,WeatherCatV1.20B785,2013-08-27 10:16:00,
2013-08-27 06:21:00,64.8,63.0,30.08,SW,218,0.0,0.0,94,0.00,,,0.00,0,WeatherCatV1.20B785,2013-08-27 10:21:00,
2013-08-27 06:26:00,64.7,62.9,30.08,North,5,0.0,1.0,94,0.00,,,0.00,0,WeatherCatV1.20B785,2013-08-27 10:26:00,
2013-08-27 06:31:00,64.6,62.8,30.08,North,5,0.0,1.0,94,0.00,,,0.00,0,WeatherCatV1.20B785,2013-08-27 10:31:00,
2013-08-27 06:36:00,64.6,62.8,30.08,NNE,30,1.0,1.0,94,0.00,,,0.00,0,WeatherCatV1.20B785,2013-08-27 10:36:00,
2013-08-27 06:41:00,64.6,62.8,30.08,NNE,30,0.0,0.0,94,0.00,,,0.00,0,WeatherCatV1.20B785,2013-08-27 10:41:00,
2013-08-27 06:46:00,64.6,62.8,30.08,NNE,29,0.0,0.0,94,0.00,,,0.00,0,WeatherCatV1.20B785,2013-08-27 10:46:00,
2013-08-27 06:51:00,64.5,63.0,30.09,NNE,27,0.0,0.0,95,0.00,,,0.00,0,WeatherCatV1.20B785,2013-08-27 10:51:00,
2013-08-27 06:56:00,64.5,63.0,30.08,WNW,301,0.0,0.0,95,0.00,,,0.00,7,WeatherCatV1.20B785,2013-08-27 10:56:00,
2013-08-27 07:01:00,64.5,63.0,30.09,WNW,301,0.0,0.0,95,0.00,,,0.00,11,WeatherCatV1.20B785,2013-08-27 11:01:00,
2013-08-27 07:06:00,64.5,63.0,30.09,WNW,296,0.0,0.0,95,0.00,,,0.00,16,WeatherCatV1.20B785,2013-08-27 11:06:00,
2013-08-27 07:11:00,64.6,63.1,30.09,WNW,296,0.0,0.0,95,0.00,,,0.00,21,WeatherCatV1.20B785,2013-08-27 11:11:00,
2013-08-27 07:16:00,64.6,63.1,30.09,WNW,296,0.0,0.0,95,0.00,,,0.00,28,WeatherCatV1.20B785,2013-08-27 11:16:00,
2013-08-27 07:21:00,64.7,63.2,30.09,WNW,296,0.0,0.0,95,0.00,,,0.00,39,WeatherCatV1.20B785,2013-08-27 11:21:00,
2013-08-27 07:26:00,64.8,63.3,30.09,WNW,296,0.0,0.0,95,0.00,,,0.00,49,WeatherCatV1.20B785,2013-08-27 11:26:00,
2013-08-27 07:31:00,65.0,63.5,30.09,WNW,296,0.0,0.0,95,0.00,,,0.00,56,WeatherCatV1.20B785,2013-08-27 11:31:00,
2013-08-27 07:36:00,65.3,63.8,30.09,SSW,196,0.0,4.0,95,0.00,,,0.00,65,WeatherCatV1.20B785,2013-08-27 11:36:00,
2013-08-27 07:41:00,65.5,64.0,30.09,WSW,244,0.0,1.0,95,0.00,,,0.00,54,WeatherCatV1.20B785,2013-08-27 11:41:00,
2013-08-27 07:46:00,65.7,63.9,30.09,West,270,0.0,0.0,94,0.00,,,0.00,60,WeatherCatV1.20B785,2013-08-27 11:46:00,
2013-08-27 07:51:00,65.8,64.0,30.09,West,270,0.0,0.0,94,0.00,,,0.00,67,WeatherCatV1.20B785,2013-08-27 11:51:00,
2013-08-27 07:56:00,65.9,64.1,30.09,West,277,0.0,0.0,94,0.00,,,0.00,74,WeatherCatV1.20B785,2013-08-27 11:56:00,
2013-08-27 08:01:00,66.1,64.3,30.09,West,277,0.0,0.0,94,0.00,,,0.00,109,WeatherCatV1.20B785,2013-08-27 12:01:00,
2013-08-27 08:06:00,66.4,64.6,30.09,WSW,251,0.0,3.0,94,0.00,,,0.00,114,WeatherCatV1.20B785,2013-08-27 12:06:00,
2013-08-27 08:11:00,66.7,64.9,30.09,WSW,252,0.0,0.0,94,0.00,,,0.00,171,WeatherCatV1.20B785,2013-08-27 12:11:00,
2013-08-27 08:16:00,67.3,65.2,30.09,West,280,1.0,2.0,93,0.00,,,0.00,178,WeatherCatV1.20B785,2013-08-27 12:16:00,
2013-08-27 08:21:00,67.6,65.2,30.09,WNW,289,2.0,4.0,92,0.00,,,0.00,190,WeatherCatV1.20B785,2013-08-27 12:21:00,
2013-08-27 08:26:00,68.1,65.7,30.09,WNW,301,0.0,0.0,92,0.00,,,0.00,195,WeatherCatV1.20B785,2013-08-27 12:26:00,
2013-08-27 08:31:00,68.4,65.7,30.08,West,265,0.0,1.0,91,0.00,,,0.00,213,WeatherCatV1.20B785,2013-08-27 12:31:00,
2013-08-27 08:36:00,68.9,66.2,30.08,SW,236,1.0,1.0,91,0.00,,,0.00,232,WeatherCatV1.20B785,2013-08-27 12:36:00,
2013-08-27 08:41:00,69.4,66.3,30.08,NW,307,0.0,0.0,90,0.00,,,0.00,257,WeatherCatV1.20B785,2013-08-27 12:41:00,
2013-08-27 08:46:00,69.8,66.4,30.08,NW,305,1.0,2.0,89,0.00,,,0.00,276,WeatherCatV1.20B785,2013-08-27 12:46:00,
2013-08-27 08:51:00,70.2,66.5,30.07,WNW,297,0.0,0.0,88,0.00,,,0.00,302,WeatherCatV1.20B785,2013-08-27 12:51:00,
2013-08-27 08:56:00,71.2,67.1,30.07,WNW,295,0.0,3.0,87,0.00,,,0.00,325,WeatherCatV1.20B785,2013-08-27 12:56:00,
2013-08-27 09:01:00,71.6,67.2,30.07,WNW,290,0.0,0.0,86,0.00,,,0.00,322,WeatherCatV1.20B785,2013-08-27 13:01:00,
2013-08-27 09:06:00,72.0,67.6,30.07,WNW,292,0.0,2.0,86,0.00,,,0.00,320,WeatherCatV1.20B785,2013-08-27 13:06:00,
2013-08-27 09:11:00,72.9,67.8,30.07,WNW,291,1.0,2.0,84,0.00,,,0.00,343,WeatherCatV1.20B785,2013-08-27 13:11:00,
2013-08-27 09:16:00,73.4,67.6,30.07,NW,315,0.0,4.0,82,0.00,,,0.00,359,WeatherCatV1.20B785,2013-08-27 13:16:00,
2013-08-27 09:21:00,73.8,67.9,30.08,WNW,292,2.0,4.0,82,0.00,,,0.00,373,WeatherCatV1.20B785,2013-08-27 13:21:00,
2013-08-27 09:26:00,74.2,68.0,30.07,NNW,334,2.0,2.0,81,0.00,,,0.00,383,WeatherCatV1.20B785,2013-08-27 13:26:00,
2013-08-27 09:31:00,74.4,67.8,30.07,WNW,289,5.0,5.0,80,0.00,,,0.00,392,WeatherCatV1.20B785,2013-08-27 13:31:00,
2013-08-27 09:36:00,74.8,68.6,30.07,SSW,209,0.0,5.0,81,0.00,,,0.00,394,WeatherCatV1.20B785,2013-08-27 13:36:00,
2013-08-27 09:41:00,75.7,69.4,30.07,NW,309,1.0,2.0,81,0.00,,,0.00,420,WeatherCatV1.20B785,2013-08-27 13:41:00,
2013-08-27 09:46:00,75.9,69.3,30.07,WSW,254,1.0,3.0,80,0.00,,,0.00,417,WeatherCatV1.20B785,2013-08-27 13:46:00,
2013-08-27 09:51:00,76.3,68.9,30.07,NW,315,2.0,2.0,78,0.00,,,0.00,557,WeatherCatV1.20B785,2013-08-27 13:51:00,
2013-08-27 09:56:00,76.9,69.1,30.07,West,280,5.0,6.0,77,0.00,,,0.00,387,WeatherCatV1.20B785,2013-08-27 13:56:00,
2013-08-27 10:01:00,76.8,69.0,30.07,NW,326,2.0,6.0,77,0.00,,,0.00,366,WeatherCatV1.20B785,2013-08-27 14:01:00,
2013-08-27 10:06:00,77.0,69.6,30.08,North,351,1.0,4.0,78,0.00,,,0.00,341,WeatherCatV1.20B785,2013-08-27 14:06:00,
2013-08-27 10:11:00,77.0,69.2,30.08,West,272,4.0,6.0,77,0.00,,,0.00,334,WeatherCatV1.20B785,2013-08-27 14:11:00,
2013-08-27 10:16:00,77.1,70.1,30.08,WNW,301,2.0,3.0,79,0.00,,,0.00,318,WeatherCatV1.20B785,2013-08-27 14:16:00,
2013-08-27 10:21:00,77.1,69.7,30.08,West,274,3.0,3.0,78,0.00,,,0.00,369,WeatherCatV1.20B785,2013-08-27 14:21:00,
2013-08-27 10:26:00,77.2,69.8,30.08,SW,223,1.0,4.0,78,0.00,,,0.00,413,WeatherCatV1.20B785,2013-08-27 14:26:00,
2013-08-27 10:31:00,77.3,69.9,30.08,SSW,199,0.0,2.0,78,0.00,,,0.00,413,WeatherCatV1.20B785,2013-08-27 14:31:00,
2013-08-27 10:36:00,77.8,70.0,30.08,NNW,332,2.0,4.0,77,0.00,,,0.00,378,WeatherCatV1.20B785,2013-08-27 14:36:00,
2013-08-27 10:41:00,78.4,70.6,30.08,West,276,0.0,0.0,77,0.00,,,0.00,647,WeatherCatV1.20B785,2013-08-27 14:41:00,
2013-08-27 10:46:00,79.0,71.2,30.08,SW,219,2.0,2.0,77,0.00,,,0.00,629,WeatherCatV1.20B785,2013-08-27 14:46:00,
2013-08-27 10:51:00,79.2,70.6,30.07,NW,316,0.0,2.0,75,0.00,,,0.00,612,WeatherCatV1.20B785,2013-08-27 14:51:00,
2013-08-27 10:56:00,79.7,70.3,30.07,SW,225,2.0,3.0,73,0.00,,,0.00,649,WeatherCatV1.20B785,2013-08-27 14:56:00,
2013-08-27 11:01:00,79.8,70.3,30.07,WNW,291,3.0,4.0,73,0.00,,,0.00,675,WeatherCatV1.20B785,2013-08-27 15:01:00,
2013-08-27 11:06:00,80.1,70.6,30.07,NW,315,0.0,6.0,73,0.00,,,0.00,554,WeatherCatV1.20B785,2013-08-27 15:06:00,
2013-08-27 11:11:00,80.5,70.6,30.07,SW,229,0.0,1.0,72,0.00,,,0.00,631,WeatherCatV1.20B785,2013-08-27 15:11:00,
2013-08-27 11:16:00,80.7,70.4,30.07,WNW,284,4.0,6.0,71,0.00,,,0.00,680,WeatherCatV1.20B785,2013-08-27 15:16:00,
2013-08-27 11:21:00,80.7,70.4,30.07,West,278,2.0,3.0,71,0.00,,,0.00,650,WeatherCatV1.20B785,2013-08-27 15:21:00,
2013-08-27 11:26:00,81.2,71.3,30.06,NNW,344,1.0,1.0,72,0.00,,,0.00,719,WeatherCatV1.20B785,2013-08-27 15:26:00,
2013-08-27 11:31:00,81.6,71.3,30.06,NW,317,2.0,3.0,71,0.00,,,0.00,726,WeatherCatV1.20B785,2013-08-27 15:31:00,
2013-08-27 11:36:00,81.8,72.3,30.06,NNW,330,1.0,3.0,73,0.00,,,0.00,747,WeatherCatV1.20B785,2013-08-27 15:36:00,
2013-08-27 11:41:00,82.4,71.2,30.06,NW,308,5.0,6.0,69,0.00,,,0.00,729,WeatherCatV1.20B785,2013-08-27 15:41:00,
2013-08-27 11:46:00,82.2,71.0,30.06,West,265,2.0,6.0,69,0.00,,,0.00,719,WeatherCatV1.20B785,2013-08-27 15:46:00,
2013-08-27 11:51:00,82.8,70.7,30.06,NNE,28,0.0,5.0,67,0.00,,,0.00,700,WeatherCatV1.20B785,2013-08-27 15:51:00,
2013-08-27 11:56:00,83.1,71.4,30.06,NW,317,3.0,4.0,68,0.00,,,0.00,751,WeatherCatV1.20B785,2013-08-27 15:56:00,
2013-08-27 12:01:00,83.3,71.2,30.06,WSW,252,1.0,7.0,67,0.00,,,0.00,798,WeatherCatV1.20B785,2013-08-27 16:01:00,
2013-08-27 12:06:00,83.7,70.7,30.06,NNW,329,3.0,9.0,65,0.00,,,0.00,729,WeatherCatV1.20B785,2013-08-27 16:06:00,
2013-08-27 12:11:00,83.4,70.8,30.06,West,265,5.0,7.0,66,0.00,,,0.00,715,WeatherCatV1.20B785,2013-08-27 16:11:00,
2013-08-27 12:16:00,83.3,70.3,30.06,NW,312,5.0,9.0,65,0.00,,,0.00,819,WeatherCatV1.20B785,2013-08-27 16:16:00,
2013-08-27 12:21:00,83.4,70.4,30.05,NW,307,7.0,7.0,65,0.00,,,0.00,703,WeatherCatV1.20B785,2013-08-27 16:21:00,
2013-08-27 12:26:00,84.0,71.4,30.05,WNW,301,1.0,4.0,66,0.00,,,0.00,786,WeatherCatV1.20B785,2013-08-27 16:26:00,
2013-08-27 12:31:00,84.9,71.3,30.05,NNW,330,5.0,7.0,64,0.00,,,0.00,826,WeatherCatV1.20B785,2013-08-27 16:31:00,
2013-08-27 12:36:00,84.5,70.9,30.05,NW,321,6.0,6.0,64,0.00,,,0.00,749,WeatherCatV1.20B785,2013-08-27 16:36:00,
2013-08-27 12:41:00,84.2,71.1,30.05,NNW,336,5.0,7.0,65,0.00,,,0.00,761,WeatherCatV1.20B785,2013-08-27 16:41:00,
2013-08-27 12:46:00,84.5,71.4,30.05,NW,326,4.0,4.0,65,0.00,,,0.00,647,WeatherCatV1.20B785,2013-08-27 16:46:00,
2013-08-27 12:51:00,84.7,71.6,30.05,NW,310,4.0,6.0,65,0.00,,,0.00,689,WeatherCatV1.20B785,2013-08-27 16:51:00,
2013-08-27 12:56:00,84.6,71.1,30.05,NW,319,5.0,5.0,64,0.00,,,0.00,707,WeatherCatV1.20B785,2013-08-27 16:56:00,
2013-08-27 13:01:00,84.2,71.6,30.05,WNW,297,3.0,6.0,66,0.00,,,0.00,698,WeatherCatV1.20B785,2013-08-27 17:01:00,
2013-08-27 13:06:00,85.3,72.6,30.04,NNW,333,6.0,6.0,66,0.00,,,0.00,751,WeatherCatV1.20B785,2013-08-27 17:06:00,
2013-08-27 13:11:00,85.3,72.2,30.04,WNW,288,5.0,6.0,65,0.00,,,0.00,768,WeatherCatV1.20B785,2013-08-27 17:11:00,
2013-08-27 13:16:00,85.1,72.4,30.04,WNW,302,3.0,7.0,66,0.00,,,0.00,568,WeatherCatV1.20B785,2013-08-27 17:16:00,
2013-08-27 13:21:00,85.2,72.5,30.04,NNW,334,5.0,7.0,66,0.00,,,0.00,733,WeatherCatV1.20B785,2013-08-27 17:21:00,
2013-08-27 13:26:00,84.6,71.1,30.04,West,269,4.0,5.0,64,0.00,,,0.00,629,WeatherCatV1.20B785,2013-08-27 17:26:00,
2013-08-27 13:31:00,84.6,72.4,30.04,West,266,5.0,6.0,67,0.00,,,0.00,795,WeatherCatV1.20B785,2013-08-27 17:31:00,
2013-08-27 13:36:00,85.2,71.6,30.04,WNW,293,1.0,6.0,64,0.00,,,0.00,891,WeatherCatV1.20B785,2013-08-27 17:36:00,
2013-08-27 13:41:00,85.9,72.3,30.04,WNW,301,3.0,5.0,64,0.00,,,0.00,772,WeatherCatV1.20B785,2013-08-27 17:41:00,
2013-08-27 13:46:00,85.8,71.7,30.04,WSW,251,1.0,6.0,63,0.00,,,0.00,867,WeatherCatV1.20B785,2013-08-27 17:46:00,
2013-08-27 13:51:00,85.9,72.3,30.04,NE,35,1.0,4.0,64,0.00,,,0.00,882,WeatherCatV1.20B785,2013-08-27 17:51:00,
2013-08-27 13:56:00,86.6,72.9,30.03,NW,324,3.0,7.0,64,0.00,,,0.00,798,WeatherCatV1.20B785,2013-08-27 17:56:00,
2013-08-27 14:01:00,86.3,71.2,30.03,NNW,342,2.0,8.0,61,0.00,,,0.00,816,WeatherCatV1.20B785,2013-08-27 18:01:00,
2013-08-27 14:07:00,86.7,71.1,30.03,NW,311,1.0,6.0,60,0.00,,,0.00,768,WeatherCatV1.20B785,2013-08-27 18:07:00,
2013-08-27 14:12:00,86.6,71.5,30.03,West,261,5.0,8.0,61,0.00,,,0.00,800,WeatherCatV1.20B785,2013-08-27 18:12:00,
2013-08-27 14:17:00,86.3,71.2,30.03,West,271,2.0,6.0,61,0.00,,,0.00,817,WeatherCatV1.20B785,2013-08-27 18:17:00,
2013-08-27 14:22:00,87.0,71.9,30.03,North,354,2.0,3.0,61,0.00,,,0.00,276,WeatherCatV1.20B785,2013-08-27 18:22:00,
2013-08-27 14:27:00,86.7,71.1,30.02,NNW,346,0.0,3.0,60,0.00,,,0.00,828,WeatherCatV1.20B785,2013-08-27 18:27:00,
2013-08-27 14:32:00,87.0,69.9,30.03,North,352,4.0,4.0,57,0.00,,,0.00,879,WeatherCatV1.20B785,2013-08-27 18:32:00,
2013-08-27 14:37:00,87.3,70.7,30.02,NNW,341,3.0,3.0,58,0.00,,,0.00,285,WeatherCatV1.20B785,2013-08-27 18:37:00,
2013-08-27 14:42:00,86.6,71.0,30.02,NNW,338,2.0,4.0,60,0.00,,,0.00,253,WeatherCatV1.20B785,2013-08-27 18:42:00,
2013-08-27 14:47:00,86.2,70.7,30.02,West,268,0.0,1.0,60,0.00,,,0.00,773,WeatherCatV1.20B785,2013-08-27 18:47:00,
2013-08-27 14:52:00,86.8,70.7,30.02,WSW,245,2.0,3.0,59,0.00,,,0.00,788,WeatherCatV1.20B785,2013-08-27 18:52:00,
2013-08-27 14:57:00,87.0,71.4,30.02,East,99,2.0,3.0,60,0.00,,,0.00,768,WeatherCatV1.20B785,2013-08-27 18:57:00,
2013-08-27 15:02:00,87.4,70.3,30.02,WNW,285,2.0,5.0,57,0.00,,,0.00,740,WeatherCatV1.20B785,2013-08-27 19:02:00,
2013-08-27 15:07:00,87.0,69.9,30.01,NW,305,0.0,2.0,57,0.00,,,0.00,754,WeatherCatV1.20B785,2013-08-27 19:07:00,
2013-08-27 15:12:00,87.6,71.0,30.01,NNE,18,1.0,2.0,58,0.00,,,0.00,661,WeatherCatV1.20B785,2013-08-27 19:12:00,
2013-08-27 15:17:00,88.2,69.9,30.01,West,275,1.0,3.0,55,0.00,,,0.00,557,WeatherCatV1.20B785,2013-08-27 19:17:00,
2013-08-27 15:22:00,87.5,69.8,30.01,West,259,1.0,2.0,56,0.00,,,0.00,496,WeatherCatV1.20B785,2013-08-27 19:22:00,
2013-08-27 15:27:00,87.6,69.4,30.00,West,276,1.0,2.0,55,0.00,,,0.00,520,WeatherCatV1.20B785,2013-08-27 19:27:00,
2013-08-27 15:32:00,86.4,70.8,30.00,West,276,0.0,0.0,60,0.00,,,0.00,485,WeatherCatV1.20B785,2013-08-27 19:32:00,
2013-08-27 15:37:00,86.9,69.8,30.01,WNW,285,3.0,4.0,57,0.00,,,0.00,336,WeatherCatV1.20B785,2013-08-27 19:37:00,
2013-08-27 15:42:00,86.3,70.2,30.01,NW,323,2.0,3.0,59,0.00,,,0.00,373,WeatherCatV1.20B785,2013-08-27 19:42:00,
2013-08-27 15:47:00,86.2,71.1,30.00,WNW,282,1.0,1.0,61,0.00,,,0.00,443,WeatherCatV1.20B785,2013-08-27 19:47:00,
2013-08-27 15:52:00,86.5,70.9,30.00,WNW,297,0.0,4.0,60,0.00,,,0.00,545,WeatherCatV1.20B785,2013-08-27 19:52:00,
2013-08-27 15:57:00,86.9,70.8,30.00,West,276,2.0,2.0,59,0.00,,,0.00,554,WeatherCatV1.20B785,2013-08-27 19:57:00,
2013-08-27 16:02:00,86.9,68.8,30.00,NW,316,2.0,3.0,55,0.00,,,0.00,485,WeatherCatV1.20B785,2013-08-27 20:02:00,
2013-08-27 16:07:00,87.2,70.6,30.00,NW,326,0.0,2.0,58,0.00,,,0.00,424,WeatherCatV1.20B785,2013-08-27 20:07:00,
2013-08-27 16:12:00,87.2,70.1,30.00,WNW,284,1.0,2.0,57,0.00,,,0.00,413,WeatherCatV1.20B785,2013-08-27 20:12:00,
2013-08-27 16:17:00,87.0,71.9,30.00,NW,304,0.0,2.0,61,0.00,,,0.00,387,WeatherCatV1.20B785,2013-08-27 20:17:00,
2013-08-27 16:22:00,86.6,71.0,30.00,North,353,2.0,4.0,60,0.00,,,0.00,394,WeatherCatV1.20B785,2013-08-27 20:22:00,
2013-08-27 16:27:00,86.3,70.7,30.00,NW,326,3.0,4.0,60,0.00,,,0.00,403,WeatherCatV1.20B785,2013-08-27 20:27:00,
2013-08-27 16:32:00,86.2,70.7,30.00,NW,324,3.0,5.0,60,0.00,,,0.00,427,WeatherCatV1.20B785,2013-08-27 20:32:00,
2013-08-27 16:37:00,86.3,71.7,30.00,North,359,0.0,2.0,62,0.00,,,0.00,364,WeatherCatV1.20B785,2013-08-27 20:37:00,
2013-08-27 16:42:00,86.6,71.5,30.00,NNW,327,0.0,3.0,61,0.00,,,0.00,436,WeatherCatV1.20B785,2013-08-27 20:42:00,
2013-08-27 16:47:00,86.8,72.2,30.00,North,351,1.0,1.0,62,0.00,,,0.00,369,WeatherCatV1.20B785,2013-08-27 20:47:00,
2013-08-27 16:52:00,86.6,71.5,30.00,North,359,3.0,4.0,61,0.00,,,0.00,306,WeatherCatV1.20B785,2013-08-27 20:52:00,
2013-08-27 16:57:00,86.3,72.2,30.00,NNE,32,0.0,0.0,63,0.00,,,0.00,272,WeatherCatV1.20B785,2013-08-27 20:57:00,
2013-08-27 17:02:00,84.9,73.1,30.00,NNE,32,0.0,0.0,68,0.00,,,0.00,255,WeatherCatV1.20B785,2013-08-27 21:02:00,
2013-08-27 17:07:00,83.7,72.4,30.00,NNE,32,0.0,0.0,69,0.00,,,0.00,225,WeatherCatV1.20B785,2013-08-27 21:07:00,
2013-08-27 17:12:00,83.8,72.9,30.00,NNE,32,0.0,2.0,70,0.00,,,0.00,221,WeatherCatV1.20B785,2013-08-27 21:12:00,
2013-08-27 17:17:00,84.4,73.5,30.00,NNE,32,0.0,0.0,70,0.00,,,0.00,218,WeatherCatV1.20B785,2013-08-27 21:17:00,
2013-08-27 17:22:00,83.1,73.1,30.00,NNE,32,0.0,0.0,72,0.00,,,0.00,225,WeatherCatV1.20B785,2013-08-27 21:22:00,
2013-08-27 17:27:00,83.1,72.7,30.00,NNE,31,1.0,1.0,71,0.00,,,0.00,211,WeatherCatV1.20B785,2013-08-27 21:27:00,
2013-08-27 17:32:00,83.5,72.2,30.00,NW,309,1.0,1.0,69,0.00,,,0.00,204,WeatherCatV1.20B785,2013-08-27 21:32:00,
2013-08-27 17:37:00,83.7,72.8,30.00,NW,309,1.0,1.0,70,0.00,,,0.00,200,WeatherCatV1.20B785,2013-08-27 21:37:00,
2013-08-27 17:42:00,84.0,72.7,30.00,NW,320,0.0,0.0,69,0.00,,,0.00,258,WeatherCatV1.20B785,2013-08-27 21:42:00,
2013-08-27 17:47:00,84.4,73.1,30.00,NW,320,0.0,2.0,69,0.00,,,0.00,255,WeatherCatV1.20B785,2013-08-27 21:47:00,
2013-08-27 17:52:00,84.8,72.2,30.00,NW,320,0.0,0.0,66,0.00,,,0.00,244,WeatherCatV1.20B785,2013-08-27 21:52:00,
2013-08-27 17:57:00,84.9,72.2,30.00,West,276,0.0,2.0,66,0.00,,,0.00,190,WeatherCatV1.20B785,2013-08-27 21:57:00,
2013-08-27 18:02:00,84.6,72.0,30.00,West,276,0.0,2.0,66,0.00,,,0.00,171,WeatherCatV1.20B785,2013-08-27 22:02:00,
2013-08-27 18:07:00,84.5,72.8,30.00,West,276,0.0,0.0,68,0.00,,,0.00,153,WeatherCatV1.20B785,2013-08-27 22:07:00,
2013-08-27 18:12:00,83.7,72.4,30.00,West,276,1.0,2.0,69,0.00,,,0.00,134,WeatherCatV1.20B785,2013-08-27 22:12:00,
2013-08-27 18:17:00,83.9,72.6,30.00,West,276,2.0,2.0,69,0.00,,,0.00,123,WeatherCatV1.20B785,2013-08-27 22:17:00,
2013-08-27 18:22:00,83.5,73.1,30.00,West,276,0.0,0.0,71,0.00,,,0.00,111,WeatherCatV1.20B785,2013-08-27 22:22:00,
2013-08-27 18:27:00,82.5,72.9,30.00,West,276,0.0,0.0,73,0.00,,,0.00,104,WeatherCatV1.20B785,2013-08-27 22:27:00,
2013-08-27 18:32:00,81.8,72.7,30.00,West,276,0.0,0.0,74,0.00,,,0.00,97,WeatherCatV1.20B785,2013-08-27 22:32:00,
2013-08-27 18:37:00,81.4,73.1,30.00,West,276,0.0,0.0,76,0.00,,,0.00,95,WeatherCatV1.20B785,2013-08-27 22:37:00,
2013-08-27 18:42:00,81.2,72.5,29.99,West,276,0.0,0.0,75,0.00,,,0.00,100,WeatherCatV1.20B785,2013-08-27 22:42:00,
2013-08-27 18:47:00,81.1,73.6,29.99,West,276,0.0,0.0,78,0.00,,,0.00,90,WeatherCatV1.20B785,2013-08-27 22:47:00,
2013-08-27 18:52:00,81.0,73.5,29.99,West,276,0.0,0.0,78,0.00,,,0.00,79,WeatherCatV1.20B785,2013-08-27 22:52:00,
2013-08-27 18:57:00,80.8,72.5,30.00,West,276,0.0,0.0,76,0.00,,,0.00,74,WeatherCatV1.20B785,2013-08-27 22:57:00,
2013-08-27 19:02:00,80.7,72.8,30.00,West,276,0.0,0.0,77,0.00,,,0.00,65,WeatherCatV1.20B785,2013-08-27 23:02:00,
2013-08-27 19:07:00,80.5,73.4,29.99,West,276,0.0,0.0,79,0.00,,,0.00,56,WeatherCatV1.20B785,2013-08-27 23:07:00,
2013-08-27 19:12:00,80.2,73.4,30.00,West,276,0.0,0.0,80,0.00,,,0.00,47,WeatherCatV1.20B785,2013-08-27 23:12:00,
2013-08-27 19:17:00,79.9,73.5,30.00,West,276,0.0,0.0,81,0.00,,,0.00,39,WeatherCatV1.20B785,2013-08-27 23:17:00,
2013-08-27 19:22:00,79.9,72.8,30.00,West,276,0.0,0.0,79,0.00,,,0.00,32,WeatherCatV1.20B785,2013-08-27 23:22:00,
2013-08-27 19:27:00,79.6,73.2,30.00,West,276,0.0,0.0,81,0.00,,,0.00,25,WeatherCatV1.20B785,2013-08-27 23:27:00,
2013-08-27 19:32:00,79.3,72.9,29.99,West,276,0.0,0.0,81,0.00,,,0.00,19,WeatherCatV1.20B785,2013-08-27 23:32:00,
2013-08-27 19:37:00,79.0,73.7,29.99,West,276,0.0,0.0,84,0.00,,,0.00,16,WeatherCatV1.20B785,2013-08-27 23:37:00,
2013-08-27 19:42:00,78.6,74.1,29.99,West,276,0.0,0.0,86,0.00,,,0.00,11,WeatherCatV1.20B785,2013-08-27 23:42:00,
2013-08-27 19:47:00,78.4,73.8,29.99,West,276,0.0,0.0,86,0.00,,,0.00,7,WeatherCatV1.20B785,2013-08-27 23:47:00,
2013-08-27 19:52:00,78.2,72.9,29.99,West,276,0.0,0.0,84,0.00,,,0.00,0,WeatherCatV1.20B785,2013-08-27 23:52:00,
2013-08-27 19:57:00,78.1,73.2,29.99,West,276,0.0,0.0,85,0.00,,,0.00,5,WeatherCatV1.20B785,2013-08-27 23:57:00,
2013-08-27 20:02:00,77.9,73.4,29.99,West,276,0.0,0.0,86,0.00,,,0.00,0,WeatherCatV1.20B785,2013-08-28 00:02:00,
2013-08-27 20:07:00,77.7,72.5,29.99,West,276,0.0,0.0,84,0.00,,,0.00,0,WeatherCatV1.20B785,2013-08-28 00:07:00,
2013-08-27 20:12:00,77.5,72.6,29.99,West,276,0.0,0.0,85,0.00,,,0.00,0,WeatherCatV1.20B785,2013-08-28 00:12:00,
2013-08-27 20:17:00,77.1,72.9,29.99,West,276,0.0,0.0,87,0.00,,,0.00,0,WeatherCatV1.20B785,2013-08-28 00:17:00,
2013-08-27 20:22:00,76.7,73.2,29.99,West,276,0.0,0.0,89,0.00,,,0.00,0,WeatherCatV1.20B785,2013-08-28 00:22:00,
2013-08-27 20:27:00,76.5,73.0,29.99,West,276,0.0,0.0,89,0.00,,,0.00,0,WeatherCatV1.20B785,2013-08-28 00:27:00,
2013-08-27 20:32:00,76.3,72.8,29.99,West,276,0.0,0.0,89,0.00,,,0.00,0,WeatherCatV1.20B785,2013-08-28 00:32:00,
2013-08-27 20:37:00,76.0,72.2,29.99,West,276,0.0,0.0,88,0.00,,,0.00,0,WeatherCatV1.20B785,2013-08-28 00:37:00,
2013-08-27 20:42:00,76.1,72.3,29.99,West,276,0.0,0.0,88,0.00,,,0.00,0,WeatherCatV1.20B785,2013-08-28 00:42:00,
2013-08-27 20:47:00,76.2,72.0,30.00,West,276,0.0,0.0,87,0.00,,,0.00,0,WeatherCatV1.20B785,2013-08-28 00:47:00,
2013-08-27 20:52:00,76.2,72.4,30.00,West,276,0.0,0.0,88,0.00,,,0.00,0,WeatherCatV1.20B785,2013-08-28 00:52:00,
2013-08-27 20:57:00,75.9,72.1,30.00,West,276,0.0,0.0,88,0.00,,,0.00,0,WeatherCatV1.20B785,2013-08-28 00:57:00,
2013-08-27 21:02:00,75.4,71.9,30.00,West,276,0.0,0.0,89,0.00,,,0.00,0,WeatherCatV1.20B785,2013-08-28 01:02:00,
2013-08-27 21:07:00,75.1,72.0,30.00,West,276,0.0,0.0,90,0.00,,,0.00,0,WeatherCatV1.20B785,2013-08-28 01:07:00,
2013-08-27 21:12:00,74.9,72.1,30.00,West,276,0.0,0.0,91,0.00,,,0.00,0,WeatherCatV1.20B785,2013-08-28 01:12:00,
2013-08-27 21:17:00,74.6,71.8,30.00,West,276,0.0,0.0,91,0.00,,,0.00,0,WeatherCatV1.20B785,2013-08-28 01:17:00,
2013-08-27 21:22:00,74.5,72.0,30.00,West,276,0.0,0.0,92,0.00,,,0.00,0,WeatherCatV1.20B785,2013-08-28 01:22:00,
2013-08-27 21:27:00,74.7,71.9,30.00,West,276,0.0,0.0,91,0.00,,,0.00,0,WeatherCatV1.20B785,2013-08-28 01:27:00,
2013-08-27 21:32:00,74.9,71.8,30.00,West,276,0.0,0.0,90,0.00,,,0.00,0,WeatherCatV1.20B785,2013-08-28 01:32:00,
2013-08-27 21:37:00,74.7,71.9,30.00,West,276,0.0,0.0,91,0.00,,,0.00,0,WeatherCatV1.20B785,2013-08-28 01:37:00,
2013-08-27 21:42:00,74.6,71.8,30.00,West,276,0.0,0.0,91,0.00,,,0.00,0,WeatherCatV1.20B785,2013-08-28 01:42:00,
2013-08-27 21:47:00,74.4,71.6,30.00,West,276,0.0,0.0,91,0.00,,,0.00,0,WeatherCatV1.20B785,2013-08-28 01:47:00,
2013-08-27 21:52:00,74.3,71.8,30.00,West,276,0.0,0.0,92,0.00,,,0.00,0,WeatherCatV1.20B785,2013-08-28 01:52:00,
2013-08-27 21:57:00,74.1,71.6,30.00,West,276,0.0,0.0,92,0.00,,,0.00,0,WeatherCatV1.20B785,2013-08-28 01:57:00,
2013-08-27 22:02:00,74.3,71.5,30.01,West,276,0.0,0.0,91,0.00,,,0.00,0,WeatherCatV1.20B785,2013-08-28 02:02:00,
2013-08-27 22:07:00,74.4,71.6,30.01,West,276,0.0,0.0,91,0.00,,,0.00,0,WeatherCatV1.20B785,2013-08-28 02:07:00,
2013-08-27 22:12:00,74.5,71.4,30.01,West,276,0.0,0.0,90,0.00,,,0.00,0,WeatherCatV1.20B785,2013-08-28 02:12:00,
2013-08-27 22:17:00,74.6,71.5,30.01,West,276,0.0,0.0,90,0.00,,,0.00,0,WeatherCatV1.20B785,2013-08-28 02:17:00,
2013-08-27 22:22:00,74.7,71.9,30.01,West,276,0.0,0.0,91,0.00,,,0.00,0,WeatherCatV1.20B785,2013-08-28 02:22:00,
2013-08-27 22:27:00,74.3,71.5,30.01,West,276,0.0,0.0,91,0.00,,,0.00,0,WeatherCatV1.20B785,2013-08-28 02:27:00,
2013-08-27 22:32:00,74.0,71.5,30.01,West,276,0.0,0.0,92,0.00,,,0.00,0,WeatherCatV1.20B785,2013-08-28 02:32:00,
2013-08-27 22:37:00,73.8,71.6,30.01,West,276,0.0,0.0,93,0.00,,,0.00,0,WeatherCatV1.20B785,2013-08-28 02:37:00,
2013-08-27 22:42:00,73.5,71.3,30.01,West,276,0.0,0.0,93,0.00,,,0.00,0,WeatherCatV1.20B785,2013-08-28 02:42:00,
2013-08-27 22:47:00,73.7,71.5,30.01,West,276,0.0,0.0,93,0.00,,,0.00,0,WeatherCatV1.20B785,2013-08-28 02:47:00,
2013-08-27 22:52:00,74.0,71.5,30.02,West,276,0.0,0.0,92,0.00,,,0.00,0,WeatherCatV1.20B785,2013-08-28 02:52:00,
2013-08-27 22:57:00,74.1,71.6,30.02,West,276,0.0,0.0,92,0.00,,,0.00,0,WeatherCatV1.20B785,2013-08-28 02:57:00,
2013-08-27 23:02:00,74.2,71.7,30.02,West,276,0.0,0.0,92,0.00,,,0.00,0,WeatherCatV1.20B785,2013-08-28 03:02:00,
2013-08-27 23:07:00,74.1,71.6,30.02,West,276,0.0,0.0,92,0.00,,,0.00,0,WeatherCatV1.20B785,2013-08-28 03:07:00,
2013-08-27 23:12:00,74.0,71.8,30.02,West,276,0.0,0.0,93,0.00,,,0.00,0,WeatherCatV1.20B785,2013-08-28 03:12:00,
2013-08-27 23:17:00,73.9,71.7,30.01,West,276,0.0,0.0,93,0.00,,,0.00,0,WeatherCatV1.20B785,2013-08-28 03:17:00,
2013-08-27 23:22:00,73.8,71.6,30.01,West,276,0.0,0.0,93,0.00,,,0.00,0,WeatherCatV1.20B785,2013-08-28 03:22:00,
2013-08-27 23:27:00,74.0,71.5,30.02,West,276,0.0,0.0,92,0.00,,,0.00,0,WeatherCatV1.20B785,2013-08-28 03:27:00,
2013-08-27 23:32:00,73.8,71.6,30.02,West,276,0.0,0.0,93,0.00,,,0.00,0,WeatherCatV1.20B785,2013-08-28 03:32:00,
2013-08-27 23:37:00,73.6,71.4,30.02,West,276,0.0,0.0,93,0.00,,,0.00,0,WeatherCatV1.20B785,2013-08-28 03:37:00,
2013-08-27 23:42:00,73.2,71.1,30.02,West,276,0.0,0.0,93,0.00,,,0.00,0,WeatherCatV1.20B785,2013-08-28 03:42:00,
2013-08-27 23:47:00,73.1,71.3,30.01,West,276,0.0,0.0,94,0.00,,,0.00,0,WeatherCatV1.20B785,2013-08-28 03:47:00,
2013-08-27 23:52:00,72.9,71.1,30.01,West,276,0.0,0.0,94,0.00,,,0.00,0,WeatherCatV1.20B785,2013-08-28 03:52:00,
2013-08-27 23:57:00,72.7,71.2,30.01,West,276,0.0,0.0,95,0.00,,,0.00,0,WeatherCatV1.20B785,2013-08-28 03:57:00,